DELTA 1 DEB, 7012

Orbit data source: Space-Track

DELTA 1 DEB, 7012 is space debris in SSO originally from a launch on Tue, 06 Nov 1973 UTC launched from the Air Force Western Test Range (AFWTR). Debris objects in space refer to the collection of defunct objects orbiting the Earth. Examples of debris include non-operational satellites, rocket bodies, and fragments generated from explosions, collisions, or faulty payload assembly.

Loading next visibility...
Identifier
7012, 1973-086C
Orbit
SSO
Country
Flag of USUS
Related business
Manufacturer
Unknown
Mission
Spacecraft
Bus & Motor
Unknown
Mass
Unknown
Launch date (UTC)
1973-11-06 (52 years ago)
Launch vehicle
Unknown
Launch site
Air Force Western Test Range (AFWTR)
Object type
Payload
Rocket body
Debris
Shape & HBR
Unknown shape, 0.3 m
Radar Cross Section
Medium (>0.1 m² and <1 m²)

Expand to show TLE details & history
Last TLE update: 20 hours ago

TLE from 20 hours ago
0 DELTA 1 DEB
1 07012U 73086C   25292.26875808  .00000034  00000-0  52714-3 0  9997
2 07012 101.7298 249.9380 0058897 225.2434 247.6666 12.47693538364428
Epoch: 2025-10-19T06:27Z
TLE epoch observation values (Epoch: 2025-10-19T06:27:00.698Z)
Latitude
65.0383°
Longitude
-28.45185°
Altitude
1,503.018 km
Speed
7.111 km/s
True Right ascension
06h 25m 09s
True Declination
64° 55' 08"
Sunlit
Object was in daylight at epoch
Visualization orbit readout
Latitude
Unknown
Longitude
Unknown
Altitude
Unknown
Speed
Unknown
Apparent Right ascension
Unknown
Apparent Declination
Unknown
Sunlit
N/A
Visualization observer readout
Local Sidereal Time
21:41:46
Azimuth
Unknown
Elevation
Unknown
Doppler factor
Unknown
Orbital elements
Apogee altitude
1,517.939 km
Perigee altitude
1,425.472 km
Semi-major axis
7,849.843 km
Eccentricity
0.00589
Inclination
101.7298°
RAAN
249.938°
Arg. of periapsis
225.2434°
True anomaly
247.04407°
Mean anomaly
247.6666°
Eccentric anomaly
247.35516°
Mean motion
3.1207 °/min
Orbital period
115.36 mins
BSTAR
0.00052714
Loading maneuver chart data...
Computing Atmospheric mass density...
Loading historical data...
Loading historical data...
Loading historical data...
Loading historical data...
Loading historical data...
Loading historical data...
Loading historical data...

Documentation

Showing up to 5 results
|